Index of /20260501/WXO-DD/model_gdps/15km/12/080
Name Last modified Size Description
Parent Directory -
20260501T12Z_MSC_GDPS_AirTemp_AGL-120m_LatLon0.15_PT080H.grib2 2026-05-01 16:00 907K
20260501T12Z_MSC_GDPS_AirTemp_AGL-2m_LatLon0.15_PT080H.grib2 2026-05-01 16:00 1.0M
20260501T12Z_MSC_GDPS_AirTemp_AGL-40m_LatLon0.15_PT080H.grib2 2026-05-01 16:00 814K
20260501T12Z_MSC_GDPS_AirTemp_AGL-80m_LatLon0.15_PT080H.grib2 2026-05-01 16:00 801K
20260501T12Z_MSC_GDPS_Albedo_Sfc_LatLon0.15_PT080H.grib2 2026-05-01 16:00 246K
20260501T12Z_MSC_GDPS_ConvectivePrecip-Accum_Sfc_LatLon0.15_PT080H.grib2 2026-05-01 16:00 3.2M
20260501T12Z_MSC_GDPS_DewPointDepression_AGL-2m_LatLon0.15_PT080H.grib2 2026-05-01 16:00 765K
20260501T12Z_MSC_GDPS_DewPoint_AGL-2m_LatLon0.15_PT080H.grib2 2026-05-01 16:00 608K
20260501T12Z_MSC_GDPS_DownwardLongwaveRadiationFlux-Accum_Sfc_LatLon0.15_PT080H.grib2 2026-05-01 16:00 684K
20260501T12Z_MSC_GDPS_DownwardShortwaveRadiationFlux-Accum_Sfc_LatLon0.15_PT080H.grib2 2026-05-01 16:00 890K
20260501T12Z_MSC_GDPS_FreezingRain-Accum1h_Sfc_LatLon0.15_PT080H.grib2 2026-05-01 16:00 39K
20260501T12Z_MSC_GDPS_FreezingRain-Accum_Sfc_LatLon0.15_PT080H.grib2 2026-05-01 16:00 287K
20260501T12Z_MSC_GDPS_IcePellets-Accum1h_Sfc_LatLon0.15_PT080H.grib2 2026-05-01 16:00 9.3K
20260501T12Z_MSC_GDPS_IcePellets-Accum_Sfc_LatLon0.15_PT080H.grib2 2026-05-01 16:00 56K
20260501T12Z_MSC_GDPS_LatentHeatNetFlux_Sfc_LatLon0.15_PT080H.grib2 2026-05-01 16:00 685K
20260501T12Z_MSC_GDPS_NetLongwaveRadiationFlux-Accum_Sfc_LatLon0.15_PT080H.grib2 2026-05-01 16:00 1.0M
20260501T12Z_MSC_GDPS_NetShortwaveRadiationFlux-Accum_Sfc_LatLon0.15_PT080H.grib2 2026-05-01 16:00 877K
20260501T12Z_MSC_GDPS_O3MixingRatio_Sfc_LatLon0.15_PT080H.grib2 2026-05-01 16:45 2.2M
20260501T12Z_MSC_GDPS_O3_EAtm_LatLon0.15_PT080H.grib2 2026-05-01 16:45 2.5M
20260501T12Z_MSC_GDPS_PlanetaryBoundaryLayerHeight_Sfc_LatLon0.15_PT080H.grib2 2026-05-01 16:00 2.4M
20260501T12Z_MSC_GDPS_Precip-Accum1h_Sfc_LatLon0.15_PT080H.grib2 2026-05-01 16:00 3.2M
20260501T12Z_MSC_GDPS_Precip-Accum_Sfc_LatLon0.15_PT080H.grib2 2026-05-01 16:00 5.2M
20260501T12Z_MSC_GDPS_PrecipRate_Sfc_LatLon0.15_PT080H.grib2 2026-05-01 16:00 3.1M
20260501T12Z_MSC_GDPS_Pressure_MSL_LatLon0.15_PT080H.grib2 2026-05-01 16:00 822K
20260501T12Z_MSC_GDPS_Pressure_Sfc_LatLon0.15_PT080H.grib2 2026-05-01 16:00 1.1M
20260501T12Z_MSC_GDPS_RadiativeTemp_Sfc_LatLon0.15_PT080H.grib2 2026-05-01 16:00 662K
20260501T12Z_MSC_GDPS_Rain-Accum1h_Sfc_LatLon0.15_PT080H.grib2 2026-05-01 16:00 1.7M
20260501T12Z_MSC_GDPS_Rain-Accum_Sfc_LatLon0.15_PT080H.grib2 2026-05-01 16:00 4.0M
20260501T12Z_MSC_GDPS_RelativeHumidity_AGL-2m_LatLon0.15_PT080H.grib2 2026-05-01 16:00 1.0M
20260501T12Z_MSC_GDPS_Runoff-Accum_Sfc_LatLon0.15_PT080H.grib2 2026-05-01 16:00 159K
20260501T12Z_MSC_GDPS_SensibleHeatNetFlux_Sfc_LatLon0.15_PT080H.grib2 2026-05-01 16:00 460K
20260501T12Z_MSC_GDPS_Snow-Accum1h_Sfc_LatLon0.15_PT080H.grib2 2026-05-01 16:00 1.1M
20260501T12Z_MSC_GDPS_Snow-Accum_Sfc_LatLon0.15_PT080H.grib2 2026-05-01 16:00 1.9M
20260501T12Z_MSC_GDPS_SnowDepth_Sfc_LatLon0.15_PT080H.grib2 2026-05-01 16:00 1.7M
20260501T12Z_MSC_GDPS_SoilTemp_DBS-0to10cm_LatLon0.15_PT080H.grib2 2026-05-01 16:00 512K
20260501T12Z_MSC_GDPS_SoilTemp_Sfc_LatLon0.15_PT080H.grib2 2026-05-01 16:00 580K
20260501T12Z_MSC_GDPS_SoilVolumetricWaterContent_DBS-0to10cm_LatLon0.15_PT080H.grib2 2026-05-01 16:00 589K
20260501T12Z_MSC_GDPS_SoilVolumetricWaterContent_DBS-0to1cm_LatLon0.15_PT080H.grib2 2026-05-01 16:00 651K
20260501T12Z_MSC_GDPS_SpecificHumidity_AGL-120m_LatLon0.15_PT080H.grib2 2026-05-01 16:00 1.1M
20260501T12Z_MSC_GDPS_SpecificHumidity_AGL-2m_LatLon0.15_PT080H.grib2 2026-05-01 16:00 1.2M
20260501T12Z_MSC_GDPS_SpecificHumidity_AGL-40m_LatLon0.15_PT080H.grib2 2026-05-01 16:00 1.1M
20260501T12Z_MSC_GDPS_SpecificHumidity_AGL-80m_LatLon0.15_PT080H.grib2 2026-05-01 16:00 1.1M
20260501T12Z_MSC_GDPS_SpecificHumidity_Sfc_LatLon0.15_PT080H.grib2 2026-05-01 16:00 638K
20260501T12Z_MSC_GDPS_TotalCloudCover_Sfc_LatLon0.15_PT080H.grib2 2026-05-01 16:00 820K
20260501T12Z_MSC_GDPS_UVIndex-ClearSky_Sfc_LatLon0.15_PT080H.grib2 2026-05-01 16:45 1.0M
20260501T12Z_MSC_GDPS_UVIndex_Sfc_LatLon0.15_PT080H.grib2 2026-05-01 16:45 1.5M
20260501T12Z_MSC_GDPS_UpwardLongwaveRadiationFlux_NTAtm_LatLon0.15_PT080H.grib2 2026-05-01 16:00 833K
20260501T12Z_MSC_GDPS_WindDir_AGL-10m_LatLon0.15_PT080H.grib2 2026-05-01 16:00 1.3M
20260501T12Z_MSC_GDPS_WindDir_AGL-120m_LatLon0.15_PT080H.grib2 2026-05-01 16:00 1.3M
20260501T12Z_MSC_GDPS_WindDir_AGL-40m_LatLon0.15_PT080H.grib2 2026-05-01 16:00 1.4M
20260501T12Z_MSC_GDPS_WindDir_AGL-80m_LatLon0.15_PT080H.grib2 2026-05-01 16:00 1.4M
20260501T12Z_MSC_GDPS_WindDir_IsbL-0700_LatLon0.15_PT080H.grib2 2026-05-01 16:00 1.6M
20260501T12Z_MSC_GDPS_WindGust-Max_AGL-10m_LatLon0.15_PT080H.grib2 2026-05-01 16:00 2.3M
20260501T12Z_MSC_GDPS_WindGust-Min_AGL-10m_LatLon0.15_PT080H.grib2 2026-05-01 16:00 2.2M
20260501T12Z_MSC_GDPS_WindGust_AGL-10m_LatLon0.15_PT080H.grib2 2026-05-01 16:00 2.2M
20260501T12Z_MSC_GDPS_WindSpeed_AGL-10m_LatLon0.15_PT080H.grib2 2026-05-01 16:00 1.1M
20260501T12Z_MSC_GDPS_WindSpeed_AGL-120m_LatLon0.15_PT080H.grib2 2026-05-01 16:00 1.2M
20260501T12Z_MSC_GDPS_WindSpeed_AGL-40m_LatLon0.15_PT080H.grib2 2026-05-01 16:00 1.2M
20260501T12Z_MSC_GDPS_WindSpeed_AGL-80m_LatLon0.15_PT080H.grib2 2026-05-01 16:00 1.2M
20260501T12Z_MSC_GDPS_WindSpeed_IsbL-0700_LatLon0.15_PT080H.grib2 2026-05-01 16:00 1.5M
20260501T12Z_MSC_GDPS_WindU_AGL-10m_LatLon0.15_PT080H.grib2 2026-05-01 16:00 1.3M
20260501T12Z_MSC_GDPS_WindU_AGL-120m_LatLon0.15_PT080H.grib2 2026-05-01 16:00 1.0M
20260501T12Z_MSC_GDPS_WindU_AGL-40m_LatLon0.15_PT080H.grib2 2026-05-01 16:00 970K
20260501T12Z_MSC_GDPS_WindU_AGL-80m_LatLon0.15_PT080H.grib2 2026-05-01 16:00 1.0M
20260501T12Z_MSC_GDPS_WindU_IsbL-0700_LatLon0.15_PT080H.grib2 2026-05-01 16:00 1.2M
20260501T12Z_MSC_GDPS_WindV_AGL-10m_LatLon0.15_PT080H.grib2 2026-05-01 16:00 1.6M
20260501T12Z_MSC_GDPS_WindV_AGL-120m_LatLon0.15_PT080H.grib2 2026-05-01 16:00 1.0M
20260501T12Z_MSC_GDPS_WindV_AGL-40m_LatLon0.15_PT080H.grib2 2026-05-01 16:00 1.2M
20260501T12Z_MSC_GDPS_WindV_AGL-80m_LatLon0.15_PT080H.grib2 2026-05-01 16:00 1.0M
20260501T12Z_MSC_GDPS_WindV_IsbL-0700_LatLon0.15_PT080H.grib2 2026-05-01 16:00 1.2M